CAPE
790 1005 1261 1387 1601 1628 1558 1516 1541 1671 1830 2004 2161 1915 1167 1093 962 815 988 1362 1210 930 832 894 890 713 360 185 226 211 204 234
580 750 1006 1146 1321 1348 1371 1353 1384 1535 1691 1785 1812 1385 984 645 529 748 789 1112 1090 921 654 759 805 598 245 90 84 209 142 241
384 623 669 778 1018 1204 1266 1327 1328 1376 1492 1521 1225 1095 827 468 110 288 477 662 767 804 659 537 659 512 169 67 87 46 98 91
343 597 676 583 1021 1169 1332 1160 1480 1455 1427 1280 1286 404 345 321 74 170 228 509 558 633 672 502 501 248 92 58 48 87 106 70
273 474 604 738 984 1012 1080 1031 1436 1245 1032 1225 1147 158 64 21 17 47 156 481 359 500 509 309 250 74 90 31 23 94 64 83
476 350 553 658 844 835 898 1013 984 1206 932 1113 1034 560 57 5 2 40 75 203 206 234 101 46 67 56 54 16 31 38 28 19
661 421 524 717 827 693 719 1017 979 1066 800 1170 1125 1014 452 57 3 29 48 169 108 176 93 0 33 27 9 0 5 9 20 25
1115 627 518 746 834 670 662 785 762 844 989 901 959 1196 988 361 28 31 61 145 62 41 15 0 14 36 1 0 0 0 6 1
1616 1204 729 825 911 743 676 708 670 568 576 719 933 1075 1069 552 189 72 74 103 50 37 0 0 46 50 7 1 0 0 0 0
1873 1839 1407 1154 1037 1087 893 800 730 680 642 704 847 1052 1133 770 411 287 166 104 62 26 8 1 4 0 12 5 0 0 0 0
1496 2040 1823 1694 1539 1365 1434 1129 1010 934 878 881 964 1013 977 867 556 371 180 154 124 64 47 53 8 0 13 2 0 0 0 0
470 1879 2101 1912 1909 1509 1323 1186 1213 1096 1178 1191 1077 1103 953 923 653 317 163 236 232 144 63 2 22 7 17 2 1 0 0 0
460 1719 2108 2054 1912 1742 1493 1439 1108 940 1281 1336 1216 1277 1131 1036 966 459 301 373 335 158 2 13 0 0 5 1 5 0 0 0
727 1866 2018 2211 2012 1530 1086 1285 1140 1277 790 1053 1299 1381 1344 1176 1103 746 385 354 228 78 57 11 0 0 0 1 3 0 0 0
125 358 873 731 729 518 626 803 744 908 735 796 783 1144 1234 1265 1007 659 345 290 190 64 62 44 9 1 0 2 2 3 1 0
75 250 355 235 8 11 462 1243 1433 1349 1363 1165 749 438 705 982 727 570 327 253 115 91 77 47 43 7 0 0 0 0 0 0
16 52 328 414 422 119 101 124 252 219 986 1136 934 375 528 527 526 351 311 251 188 113 73 69 38 52 1 0 0 0 0 0
71 176 180 150 145 165 208 258 402 334 331 1091 974 536 274 572 518 410 381 307 223 98 114 84 65 64 15 0 0 0 0 0
65 31 41 76 119 89 51 79 127 227 229 370 567 100 102 275 511 385 473 415 408 164 90 84 67 48 3 1 0 0 0 0
0 0 0 0 0 0 0 1 24 90 188 199 175 112 66 156 279 406 561 430 268 137 90 96 68 41 1 0 0 0 0 0
CIN
-575 -545 -466 -408 -335 -311 -278 -236 -194 -138 -98 -52 -15 -30 -116 -110 -123 -134 -112 -63 -70 -69 -49 -49 -48 -50 -79 -99 -72 -102 -104 -94
-603 -575 -518 -451 -383 -348 -310 -276 -244 -188 -139 -97 -56 -94 -135 -185 -195 -145 -137 -91 -87 -87 -63 -55 -55 -64 -106 -110 -107 -85 -135 -83
-653 -571 -565 -520 -420 -348 -312 -281 -263 -216 -165 -146 -154 -142 -167 -220 -341 -246 -189 -144 -125 -114 -84 -89 -88 -97 -137 -205 -193 -180 -160 -124
-662 -580 -538 -535 -370 -306 -261 -294 -217 -207 -173 -185 -163 -306 -289 -269 -388 -307 -254 -170 -139 -123 -106 -91 -105 -127 -161 -185 -240 -180 -135 -136
-685 -623 -562 -497 -382 -320 -285 -280 -209 -232 -262 -201 -197 -432 -457 -509 -520 -414 -293 -166 -166 -130 -128 -137 -144 -175 -166 -208 -228 -171 -191 -119
-616 -620 -544 -491 -419 -365 -320 -272 -269 -227 -270 -212 -207 -285 -488 -570 -113 -458 -347 -252 -212 -174 -212 -218 -183 -168 -178 -191 -158 -127 -160 -183
-532 -594 -552 -472 -401 -396 -357 -273 -257 -240 -278 -184 -166 -179 -282 -446 -112 -472 -393 -255 -246 -180 -187 0 -201 -174 -186 0 -81 -99 -120 -171
-397 -491 -528 -457 -423 -431 -404 -340 -307 -265 -239 -222 -181 -132 -156 -269 -440 -372 -371 -265 -288 -250 -270 0 -178 -130 -70 0 0 0 -154 -17
-276 -390 -449 -433 -430 -449 -419 -378 -336 -327 -312 -254 -194 -156 -139 -221 -294 -341 -346 -294 -259 -256 0 0 -147 -103 -157 -201 0 0 0 0
-280 -279 -347 -379 -389 -381 -393 -376 -334 -312 -284 -241 -202 -151 -116 -156 -230 -232 -261 -283 -256 -284 -276 -40 -85 0 -121 -130 0 0 0 0
-261 -256 -298 -320 -315 -317 -279 -295 -257 -236 -222 -207 -164 -134 -128 -123 -185 -215 -252 -221 -210 -205 -210 -208 -182 0 -118 -88 0 0 0 0
-336 -286 -283 -279 -234 -242 -245 -243 -198 -187 -160 -154 -136 -98 -110 -97 -142 -217 -262 -178 -162 -159 -174 -100 -173 -110 -65 -143 -74 0 0 0
-465 -290 -259 -244 -219 -185 -179 -168 -210 -235 -166 -141 -119 -78 -83 -77 -97 -168 -203 -161 -168 -186 -33 -222 0 -0 -65 0 -34 0 0 0
-507 -258 -265 -215 -199 -220 -244 -223 -232 -216 -235 -178 -131 -89 -66 -63 -64 -103 -172 -136 -162 -214 -221 -180 0 0 -2 -23 0 0 -0 0
-658 -596 -440 -437 -388 -365 -302 -267 -268 -208 -221 -209 -190 -99 -62 -43 -60 -78 -152 -125 -145 -206 -208 -195 -143 0 0 -15 -25 -16 -1 0
-586 -525 -500 -507 -610 -573 -295 -172 -127 -147 -141 -149 -186 -195 -121 -72 -72 -77 -116 -124 -146 -190 -198 -214 -176 -139 -24 0 0 0 -0 0
-496 -531 -452 -413 -386 -463 -440 -342 -290 -323 -154 -95 -103 -153 -118 -97 -87 -94 -85 -100 -124 -171 -196 -174 -199 -167 -1 -1 0 0 0 0
-465 -424 -435 -438 -450 -450 -416 -286 -195 -196 -179 -46 -57 -88 -120 -77 -74 -74 -71 -83 -95 -163 -178 -179 -184 -192 -174 -1 0 0 0 0
-463 -381 -397 -414 -407 -438 -469 -377 -262 -145 -135 -83 -40 -124 -123 -101 -84 -69 -64 -63 -52 -111 -149 -164 -183 -193 -235 -102 -40 0 -0 0
0 0 0 0 0 0 0 -68 -411 -254 -140 -103 -89 -83 -131 -89 -93 -84 -59 -74 -80 -130 -149 -158 -176 -199 -14 -0 0 0 0 0
Wind_Speed
9 12 13 15 14 17 17 17 16 15 15 13 12 12 14 14 12 10 9 9 10 11 13 13 12 12 12 10 10 9 7 5
8 7 8 9 10 12 14 15 15 15 15 14 13 12 13 13 12 11 10 9 10 11 12 11 11 11 12 11 8 8 5 4
6 8 6 6 6 9 11 13 14 12 12 13 11 7 9 10 10 12 10 10 10 10 11 11 11 10 12 12 12 3 5 3
8 9 11 9 5 9 9 8 8 9 8 10 8 6 6 8 8 12 10 10 10 9 8 8 7 4 3 5 3 7 4 4
10 10 10 12 9 8 5 4 6 6 8 9 10 6 4 4 3 4 3 7 3 4 3 3 4 5 4 3 3 5 4 3
11 9 10 9 8 9 8 7 6 7 6 9 8 6 6 5 4 5 4 3 5 4 2 1 3 4 6 3 5 4 3 3
12 12 12 11 12 9 9 8 8 7 4 8 7 7 7 5 4 5 4 4 4 5 6 3 4 5 5 6 3 5 6 4
10 13 12 12 11 13 11 10 12 9 8 9 10 8 7 7 6 6 5 6 4 5 7 4 4 5 6 5 5 4 5 4
14 15 13 15 15 13 11 10 11 11 10 14 11 8 8 9 7 7 6 8 9 7 5 3 4 4 5 5 4 5 3 5
17 14 16 16 14 12 10 10 10 10 10 11 16 11 9 9 8 8 7 8 8 7 5 4 4 4 4 4 4 4 5 4
17 16 17 18 14 10 10 11 8 8 8 9 15 13 12 10 8 8 10 8 8 7 5 5 4 4 4 4 3 5 5 5
17 15 16 14 8 7 6 7 8 7 8 9 12 12 14 12 8 9 10 8 8 8 9 4 4 6 5 5 3 3 4 5
10 12 12 12 10 10 7 9 8 7 8 11 11 12 15 14 10 11 11 12 12 12 6 9 2 5 4 3 2 4 5 4
16 15 14 12 10 7 3 5 5 9 7 8 11 13 14 13 12 11 12 9 11 11 12 6 3 8 5 5 3 2 3 5
7 9 9 7 7 5 2 4 3 3 4 5 8 10 11 13 13 11 12 10 10 13 13 14 8 7 9 5 4 4 4 3
6 8 9 7 8 5 4 3 3 4 6 8 8 10 10 13 12 12 12 10 11 12 12 12 12 9 6 5 2 5 4 3
6 6 8 7 7 9 6 3 1 0 2 5 8 7 11 13 13 15 13 11 13 14 12 11 11 11 10 9 6 2 3 4
6 10 8 8 7 6 11 7 2 2 2 4 5 7 6 12 14 14 14 13 13 13 14 16 13 11 10 10 11 8 6 4
12 12 7 6 8 6 9 7 3 3 4 4 5 6 5 8 12 13 12 14 13 12 13 14 13 12 12 11 9 11 7 9
11 16 12 6 9 8 10 8 4 3 3 3 4 5 5 6 8 10 11 13 12 14 11 11 13 11 13 11 9 9 9 8
Wind_Direction
179 173 170 161 162 160 159 161 164 164 164 163 165 156 153 159 159 163 156 160 159 158 144 143 145 139 128 109 117 119 123 129
179 168 159 162 165 161 161 163 167 168 166 163 162 158 161 163 157 162 162 166 176 174 149 144 149 137 126 125 119 135 127 125
176 161 150 145 155 168 163 166 167 169 166 162 154 166 166 166 162 156 165 177 187 177 157 163 151 149 141 136 129 122 135 146
186 164 167 149 152 170 174 168 178 175 174 169 167 161 166 167 166 167 173 178 186 180 174 160 135 117 88 132 153 135 148 146
189 176 167 164 164 172 179 180 177 179 172 170 172 154 160 153 150 160 160 168 168 164 161 140 139 115 134 182 109 135 137 152
182 173 171 173 161 176 180 182 187 188 189 171 172 167 168 168 168 157 162 156 153 179 136 148 147 148 150 156 136 137 142 165
193 173 176 173 172 176 183 187 192 189 188 178 173 178 178 166 161 164 162 155 153 174 188 196 166 125 118 130 107 166 184 167
185 192 183 172 176 180 184 186 194 194 191 200 201 189 176 178 168 172 170 172 172 181 195 189 154 130 117 133 140 184 182 159
198 193 183 183 184 178 183 186 187 193 197 199 194 187 182 180 181 179 177 182 185 192 187 166 139 151 163 131 144 149 158 163
196 192 188 187 190 182 182 184 188 191 192 195 199 195 183 180 183 186 178 178 181 188 175 157 158 159 136 147 156 159 158 185
203 189 188 191 189 180 179 175 179 191 186 191 200 196 193 191 188 182 175 182 185 181 174 168 177 156 156 149 155 160 157 166
206 193 190 182 172 149 157 168 182 181 187 190 189 200 196 192 185 180 174 183 182 179 181 178 180 166 148 147 119 150 148 174
179 180 177 164 170 171 173 183 190 182 193 188 184 197 199 196 192 187 186 190 190 181 156 173 130 154 111 124 109 163 162 191
166 180 171 174 172 170 156 165 195 192 187 189 189 195 199 200 197 192 186 191 187 180 170 156 146 170 157 133 164 206 190 196
118 132 130 141 151 127 111 89 83 130 180 201 203 195 202 200 198 195 185 191 195 185 179 174 174 185 175 145 155 194 172 178
73 113 122 132 141 138 134 146 165 194 194 206 204 197 197 198 193 199 186 188 196 194 185 186 175 185 188 225 189 139 178 166
121 98 90 86 100 112 105 102 275 345 176 196 209 211 205 203 194 192 191 191 194 190 184 193 192 177 193 190 212 181 189 147
95 101 92 79 63 100 98 89 24 318 264 225 221 229 215 209 202 197 193 188 190 195 193 191 195 189 192 192 199 189 185 178
122 102 105 125 112 75 99 92 119 220 242 229 239 244 234 219 195 196 191 191 191 191 195 194 192 196 188 197 200 213 199 199
122 134 114 66 70 89 59 43 22 329 284 244 219 216 232 234 203 187 188 184 189 185 192 192 191 203 199 200 203 207 206 197